Date,TemperatureHighF,TemperatureAvgF,TemperatureLowF,DewpointHighF,DewpointAvgF,DewpointLowF,HumidityHigh,HumidityAvg,HumidityLow,PressureMaxIn,PressureMinIn,WindSpeedMaxMPH,WindSpeedAvgMPH,GustSpeedMaxMPH,PrecipitationSumIn
2013-1-1,82,66,53,64,59,52,99,82,50,29.92,29.92,2,0,4,0.00
2013-1-2,82,67,56,70,62,56,99,87,58,29.92,29.92,3,0,9,0.00
2013-1-3,85,69,57,73,64,57,99,85,52,29.92,29.92,3,0,9,0.00
2013-1-4,70,67,64,68,66,63,99,94,88,29.92,29.92,1,0,6,0.15
2013-1-5,79,70,61,68,65,60,98,86,64,29.92,29.92,2,0,7,0.01
2013-1-6,84,72,64,74,68,64,99,88,61,29.92,29.92,3,1,8,0.00
2013-1-7,76,69,65,68,67,63,99,93,76,29.92,29.92,2,0,6,0.01
2013-1-8,86,72,63,74,68,62,99,86,54,29.92,29.92,2,0,8,0.01
2013-1-9,88,76,69,74,69,65,99,79,49,29.92,29.92,3,1,8,0.00
2013-1-10,85,74,63,71,65,61,99,75,46,29.92,29.92,4,1,11,0.00
2013-1-11,86,70,59,71,64,14,99,84,49,29.92,29.92,3,0,8,0.00
2013-1-12,86,72,63,72,66,62,99,82,51,29.92,29.92,3,1,8,0.00
2013-1-13,87,72,62,71,64,61,99,80,47,29.92,29.92,2,0,5,0.00
2013-1-14,82,70,58,65,62,58,99,78,50,29.92,29.92,2,0,4,0.00
2013-1-15,86,70,56,72,62,56,99,80,46,29.92,29.92,2,0,7,0.00
2013-1-16,85,70,57,71,63,57,99,80,49,29.92,29.92,2,0,10,0.00
2013-1-17,84,67,60,73,61,51,99,82,51,29.92,29.92,92,4,20,0.00
2013-1-18,70,60,44,58,50,38,99,72,55,29.92,29.92,5,2,13,0.00
2013-1-19,77,66,58,65,62,58,99,88,65,29.92,29.92,3,1,8,0.00
2013-1-20,78,68,64,68,65,64,99,92,65,29.92,29.92,2,0,3,0.00
2013-1-21,79,70,61,69,64,60,99,84,64,29.92,29.92,6,2,10,0.00
2013-1-22,72,62,55,60,52,43,94,72,49,29.92,29.92,3,1,11,0.00
2013-1-23,76,60,50,51,44,39,80,58,27,29.92,29.92,3,1,11,0.00
2013-1-24,77,58,45,53,45,34,99,67,22,29.92,29.92,4,0,11,0.00
2013-1-25,80,64,44,55,50,44,99,66,39,29.93,29.92,2,0,6,0.00
2013-1-26,75,75,75,52,52,52,45,45,45,29.92,29.92,0,0,0,0.00
2013-1-27,82,72,49,62,56,48,99,59,38,29.92,29.92,3,1,11,0.00
2013-1-28,86,71,60,68,60,56,99,72,41,29.92,29.92,3,1,8,0.00
2013-1-29,85,75,58,72,64,58,99,73,55,29.92,29.92,3,1,7,0.00
2013-1-30,86,76,61,70,66,61,99,72,47,29.92,29.92,4,2,14,0.00
2013-1-31,72,67,59,69,58,52,99,78,52,29.92,29.92,10,3,22,0.14
2013-2-1,70,63,40,45,42,37,90,49,37,29.92,29.92,4,1,11,0.00
2013-2-2,70,70,70,42,42,42,37,37,37,29.92,29.92,2,2,4,0.00
2013-2-3,70,54,45,45,44,42,95,76,37,29.92,29.92,2,2,5,0.00
2013-2-4,75,57,41,55,43,28,99,67,18,29.92,29.92,2,1,7,0.00
2013-2-5,82,68,44,57,53,44,98,61,37,29.92,29.92,3,1,8,0.00
2013-2-6,85,69,52,65,58,52,99,73,43,29.92,29.92,2,0,7,0.00
2013-2-7,86,71,58,68,62,58,99,75,41,29.92,29.92,5,1,14,0.00
2013-2-8,86,73,61,70,62,54,97,73,34,29.92,29.92,6,2,18,0.00
2013-2-9,81,67,54,63,59,54,99,78,49,29.92,29.92,2,1,11,0.00
2013-2-10,85,69,56,67,60,56,99,78,45,29.92,29.92,4,1,10,0.00
2013-2-11,87,73,57,68,62,4,99,73,11,29.92,29.92,3,1,8,0.00
2013-2-12,86,78,59,72,66,58,99,68,51,29.92,29.92,4,0,6,0.00
2013-2-13,88,77,67,75,69,56,99,78,52,29.92,29.92,5,2,14,0.00
2013-2-14,71,63,59,70,62,55,99,95,67,29.92,29.92,6,1,17,1.24
2013-2-15,67,62,59,64,61,59,99,96,87,29.92,29.92,2,0,5,0.02
2013-2-16,70,60,50,61,53,47,99,79,48,29.92,29.92,11,3,22,0.01
2013-2-17,59,49,40,47,28,19,85,48,22,29.92,29.92,6,2,16,0.00
2013-2-18,72,53,34,49,40,28,93,63,40,29.92,29.92,4,1,12,0.00
2013-2-19,81,63,47,62,56,47,99,80,50,29.92,29.92,4,1,10,0.00
2013-2-20,84,67,53,70,58,53,99,76,41,29.92,29.92,2,0,8,0.00
2013-2-21,87,70,59,70,63,58,99,80,46,29.92,29.92,4,0,9,0.00
2013-2-22,89,73,60,74,66,14,99,81,10,29.92,29.92,4,1,11,0.00
2013-2-23,88,75,65,75,69,64,99,85,53,29.92,29.92,4,1,12,0.00
2013-2-24,90,76,68,76,68,59,99,81,36,29.92,29.92,4,1,12,0.00
2013-2-25,87,74,64,74,68,63,99,82,51,29.92,29.92,4,1,14,0.00
2013-2-26,89,76,66,74,70,12,98,84,12,29.92,29.92,6,2,21,0.06
2013-2-27,77,67,60,67,63,58,99,86,61,29.92,29.92,4,1,8,0.00
2013-2-28,76,64,58,58,56,50,92,76,44,29.92,29.92,5,1,14,0.00
2013-3-1,64,60,56,58,49,44,90,66,51,29.92,29.92,4,2,11,0.00
2013-3-2,60,55,46,45,42,39,86,63,47,29.92,29.92,7,2,14,0.00
2013-3-3,59,53,42,48,41,36,99,67,50,29.92,29.92,6,4,15,0.02
2013-3-4,70,62,34,42,36,30,99,41,23,29.92,29.92,6,2,11,0.02
2013-3-5,80,71,39,55,45,32,99,43,24,29.92,29.92,4,2,11,0.00
2013-3-6,77,66,50,64,47,34,99,52,29,29.92,29.92,9,3,14,0.06
2013-3-7,71,55,42,47,40,35,85,60,29,29.92,29.92,5,2,13,0.00
2013-3-8,80,59,41,52,44,33,99,64,19,29.92,29.92,6,1,10,0.00
2013-3-9,80,63,46,55,49,40,99,67,26,29.92,29.92,2,1,8,0.00
2013-3-10,83,67,54,58,54,50,92,65,38,29.92,29.92,4,1,11,0.00
2013-3-11,82,70,58,64,59,55,95,71,46,29.92,29.92,13,1,13,0.00
2013-3-12,79,68,58,70,64,55,95,86,66,29.92,29.92,7,2,17,0.00
2013-3-13,80,64,52,55,44,34,98,55,20,29.92,29.92,6,2,15,0.00
2013-3-14,75,59,45,48,36,22,94,51,15,29.92,29.92,5,1,14,0.00
2013-3-15,77,58,40,47,39,25,99,59,17,29.92,29.92,3,1,10,0.00
2013-3-16,83,60,42,57,46,41,99,65,24,29.92,29.92,4,1,10,0.00
2013-3-17,83,64,47,61,54,45,99,73,43,29.92,29.92,3,1,13,0.00
2013-3-18,81,68,59,70,64,56,99,89,64,29.92,29.92,3,1,9,0.22
2013-3-19,85,72,65,69,66,63,99,84,52,29.92,29.92,4,1,15,0.02
2013-3-20,82,67,60,67,62,56,99,85,43,29.92,29.92,8,2,17,0.07
2013-3-21,76,65,50,62,48,32,99,62,21,29.92,29.92,5,1,15,0.01
2013-3-22,84,64,45,69,57,43,97,79,55,29.92,29.92,2,0,8,0.01
2013-3-23,89,76,67,78,68,10,99,81,10,29.92,29.92,5,2,16,1.00
2013-3-24,84,78,67,74,71,66,98,82,71,29.92,29.92,8,5,18,0.00
2013-3-25,83,82,55,73,71,36,71,70,30,29.92,29.92,7,7,17,0.17
2013-3-26,66,56,46,48,38,29,93,54,31,29.97,29.92,13,4,24,0.00
2013-3-27,68,53,40,39,36,29,88,58,26,29.92,29.92,4,1,12,0.00
2013-3-28,77,57,41,46,38,24,97,57,17,29.92,29.92,4,1,9,0.00
2013-3-29,79,61,45,50,43,34,95,59,20,29.92,29.92,4,1,11,0.00
2013-3-30,57,55,49,56,53,46,99,94,73,29.92,29.92,0,0,2,0.00
2013-3-31,87,69,54,62,58,53,99,73,36,29.92,29.92,5,1,11,0.00
2013-4-1,86,72,60,71,63,58,99,78,44,29.92,29.92,6,2,15,0.00
2013-4-2,88,74,64,70,65,10,99,77,41,29.92,29.92,4,1,9,0.00
2013-4-3,92,75,63,71,65,61,99,75,37,29.92,29.92,3,1,11,0.00
2013-4-4,84,71,65,73,68,63,99,91,67,29.92,29.92,11,1,24,0.32
2013-4-5,76,68,61,69,64,57,99,87,61,29.92,29.92,5,2,14,0.40
2013-4-6,82,63,56,61,58,55,98,85,48,29.92,29.92,4,1,9,0.00
2013-4-7,86,70,60,66,62,57,99,76,45,29.92,29.92,4,1,8,0.00
2013-4-8,86,74,61,67,60,14,98,67,10,29.92,29.92,3,0,8,0.00
2013-4-9,89,73,61,69,64,59,98,75,41,29.92,29.92,4,1,10,0.00
2013-4-10,92,76,64,73,69,63,97,79,47,29.92,29.92,4,1,11,0.04
2013-4-11,90,77,69,76,72,68,99,85,52,29.92,29.92,3,1,11,0.08
2013-4-12,91,79,73,77,72,14,99,81,10,29.92,29.92,4,2,14,0.04
2013-4-13,90,81,73,73,70,67,96,72,48,29.92,29.92,4,1,9,0.00
2013-4-14,95,81,68,77,71,67,98,75,45,29.92,29.92,3,1,11,0.00
2013-4-15,94,78,65,76,69,63,99,77,42,29.92,29.92,5,1,13,0.14
2013-4-16,95,80,68,75,71,68,99,77,42,29.92,29.92,2,1,9,0.00
2013-4-17,91,79,0,70,67,62,99,70,42,29.92,29.92,4,1,9,0.00
2013-4-18,94,79,68,73,69,65,94,73,44,29.92,29.92,2,1,8,0.00
2013-4-19,96,77,67,76,70,64,99,81,37,29.92,29.92,4,1,11,0.20
2013-4-20,88,76,67,78,71,67,99,86,59,29.92,29.92,5,1,14,0.09
2013-4-21,90,73,63,72,67,62,99,84,48,29.92,29.92,2,1,8,0.43
2013-4-22,84,74,68,74,69,67,99,87,64,29.92,29.92,3,1,8,0.25
2013-4-23,88,75,66,71,66,62,99,77,47,29.92,29.92,3,1,10,0.00
2013-4-24,90,75,60,68,63,3,99,71,10,29.92,29.92,2,0,7,0.00
2013-4-25,86,73,62,69,64,60,99,75,41,29.92,29.92,1,0,7,0.00
2013-4-26,89,74,60,67,63,60,99,72,43,29.92,29.92,4,1,11,0.00
2013-4-27,90,76,64,70,64,61,99,70,41,29.92,29.92,3,1,10,0.00
2013-4-28,90,76,64,66,63,61,96,68,41,29.92,29.92,3,1,8,0.00
2013-4-29,92,73,62,72,66,60,96,80,43,29.92,29.92,4,0,11,0.13
2013-4-30,91,74,66,76,70,66,99,90,53,29.92,29.92,3,0,8,0.09
2013-5-1,82,71,68,76,70,66,99,95,78,29.92,29.92,5,0,21,0.58
2013-5-2,76,69,65,74,68,65,99,97,87,29.92,29.92,2,0,4,0.21
2013-5-3,85,76,63,74,67,62,99,77,59,29.92,29.92,4,1,14,0.00
2013-5-4,85,85,85,70,70,70,60,60,60,29.92,29.92,2,2,6,0.00
2013-5-5,85,80,63,70,60,47,84,53,33,29.92,29.92,8,3,16,0.00
2013-5-6,83,72,55,67,61,54,99,71,50,29.92,29.92,7,2,14,0.00
2013-5-7,82,68,54,62,58,54,99,74,42,29.92,29.92,7,2,14,0.00
2013-5-8,86,70,55,67,58,52,99,72,37,29.92,29.92,5,1,11,0.00
2013-5-9,92,73,54,66,58,53,99,67,28,29.92,29.92,4,1,10,0.00
2013-5-10,93,76,62,78,67,61,98,77,46,29.92,29.92,7,0,20,0.54
2013-5-11,92,79,66,78,70,66,99,79,45,29.92,29.92,5,1,12,0.00
2013-5-12,89,77,71,78,72,68,99,86,54,29.92,29.92,8,1,12,0.01
2013-5-13,87,77,68,71,66,53,99,73,50,29.92,29.92,5,1,11,0.00
2013-5-14,88,73,60,60,57,53,92,60,32,29.92,29.92,2,1,10,0.00
2013-5-15,88,75,57,65,60,56,99,63,37,29.92,29.92,3,1,10,0.00
2013-5-16,90,75,60,66,62,57,99,67,35,29.92,29.92,2,0,7,0.00
2013-5-17,93,78,63,70,64,60,98,67,36,29.92,29.92,2,0,7,0.00
2013-5-18,96,81,69,76,68,59,99,70,30,29.92,29.92,6,1,10,0.00
2013-5-19,94,78,68,74,70,66,97,78,43,29.92,29.92,3,0,9,0.66
2013-5-20,94,77,69,77,71,68,99,85,45,29.92,29.92,4,1,8,0.06
2013-5-21,91,76,67,76,70,67,99,85,48,29.92,29.92,4,0,11,1.67
2013-5-22,90,77,67,79,71,66,99,84,52,29.92,29.92,6,1,11,0.00
2013-5-23,92,79,67,76,70,66,99,77,46,29.92,29.92,4,2,13,0.00
2013-5-24,92,84,71,74,70,67,98,66,44,29.92,29.92,3,1,8,0.00
2013-5-25,92,81,68,74,71,66,99,76,45,29.92,29.92,2,1,8,0.22
2013-5-26,89,76,64,68,65,61,96,70,40,29.92,29.92,3,1,10,0.00
2013-5-27,91,77,65,72,68,63,96,76,42,29.92,29.92,4,1,12,0.00
2013-5-28,88,78,71,76,72,70,98,84,59,29.92,29.92,3,1,11,0.14
2013-5-29,88,76,71,74,71,69,98,85,60,29.92,29.92,4,1,11,0.07
2013-5-30,88,78,70,77,72,69,96,84,62,29.92,29.92,3,1,18,0.13
2013-5-31,87,78,73,78,74,70,97,86,69,29.92,29.92,2,1,9,0.54
2013-6-1,84,80,73,77,75,72,99,85,78,29.92,29.92,1,0,6,0.00
2013-6-2,87,83,72,80,77,71,99,81,74,29.92,29.92,1,1,6,1.48
2013-6-3,86,77,72,78,74,72,99,92,71,29.92,29.92,4,0,7,0.01
2013-6-4,85,77,71,77,74,70,98,91,73,29.92,29.92,2,0,6,0.05
2013-6-5,80,77,75,77,75,74,98,94,88,29.92,29.92,2,0,7,0.20
2013-6-6,82,75,71,79,74,69,99,95,77,29.92,29.92,6,2,17,1.03
2013-6-7,86,79,73,78,74,72,99,87,65,29.92,29.92,4,1,10,0.00
2013-6-8,82,76,74,78,75,73,98,96,83,29.92,29.92,1,0,4,0.73
2013-6-9,94,82,73,80,74,72,99,81,52,29.92,29.92,2,0,9,0.00
2013-6-10,93,81,73,80,76,73,99,84,59,29.92,29.92,2,0,5,0.02
2013-6-11,94,85,74,81,76,73,99,76,53,29.92,29.92,3,1,8,0.01
2013-6-12,95,84,72,80,75,72,98,76,49,29.92,29.92,4,1,12,0.50
2013-6-13,95,78,69,78,73,18,99,85,49,29.92,29.92,4,0,19,0.74
2013-6-14,91,81,72,79,73,69,99,79,50,29.92,29.92,6,2,12,0.00
2013-6-15,94,82,71,78,73,70,99,78,47,29.92,29.92,4,1,8,0.00
2013-6-16,92,84,75,80,76,74,97,80,61,29.92,29.92,4,0,7,0.00
2013-6-17,96,84,74,82,75,19,99,78,12,29.92,29.92,3,0,6,0.84
2013-6-18,94,86,74,81,77,73,99,75,52,29.92,29.92,2,0,7,0.05
2013-6-19,94,79,72,83,75,18,99,89,56,29.92,29.92,6,0,14,0.43
2013-6-20,93,77,71,81,74,71,99,91,55,29.92,29.92,5,0,11,0.40
2013-6-21,86,75,71,77,72,70,99,92,66,29.92,29.92,2,0,4,0.00
2013-6-22,94,82,72,78,73,68,99,75,43,29.92,29.92,2,0,7,0.00
2013-6-23,93,80,73,79,74,72,98,83,54,29.92,29.92,2,0,7,0.00
2013-6-24,94,82,73,78,74,71,98,79,52,29.92,29.92,2,0,8,0.00
2013-6-25,95,81,72,78,74,69,98,80,45,29.92,29.92,3,0,8,0.01
2013-6-26,90,76,72,80,74,70,99,93,66,29.92,29.92,3,0,10,0.54
2013-6-27,95,78,71,81,73,70,99,88,53,29.92,29.92,3,0,10,0.26
2013-6-28,93,83,71,82,74,12,99,77,10,29.92,29.92,4,1,10,0.00
2013-6-29,91,90,87,76,75,72,66,62,55,29.92,29.92,5,2,12,0.00
2013-6-30,88,82,74,82,76,74,99,82,66,29.92,29.92,4,2,14,1.33
2013-7-1,86,75,71,78,65,14,99,83,10,29.92,29.92,6,1,18,1.13
2013-7-2,87,76,73,81,75,72,99,96,80,29.92,29.92,3,0,8,1.09
2013-7-3,89,77,72,79,75,72,99,92,69,29.92,29.92,3,0,7,0.26
2013-7-4,92,79,72,80,75,71,99,88,56,29.92,29.92,3,0,11,0.02
2013-7-5,89,79,73,80,76,72,98,89,69,29.92,29.92,3,0,10,0.09
2013-7-6,93,82,74,80,75,71,99,81,52,29.92,29.92,2,1,7,0.01
2013-7-7,92,82,74,81,75,73,98,80,59,29.92,29.92,3,1,11,0.04
2013-7-8,93,82,74,78,74,19,99,80,12,29.92,29.92,2,1,11,0.00
2013-7-9,88,83,72,78,75,71,99,78,64,29.92,29.92,2,0,7,0.32
2013-7-10,89,77,72,77,73,18,99,89,12,29.92,29.92,3,0,8,0.27
2013-7-11,89,78,72,80,75,72,99,90,64,29.92,29.92,4,0,13,0.08
2013-7-12,88,77,72,78,73,70,97,88,66,29.92,29.92,6,0,12,0.50
2013-7-13,88,76,72,82,74,70,99,95,68,29.92,29.92,5,0,13,0.21
2013-7-14,84,76,72,78,75,72,99,94,80,29.92,29.92,4,0,8,0.11
2013-7-15,89,78,71,80,74,70,99,91,65,29.92,29.92,3,0,6,0.06
2013-7-16,88,77,73,78,74,71,99,91,63,29.92,29.92,3,1,11,0.35
2013-7-17,86,79,73,79,75,73,99,89,72,29.92,29.92,3,1,10,0.00
2013-7-18,85,80,72,80,77,72,99,89,81,29.92,29.92,1,0,4,0.00
2013-7-19,88,82,71,82,78,70,99,86,75,29.92,29.92,3,1,7,0.37
2013-7-20,92,76,71,84,75,18,99,95,72,29.92,29.92,3,0,10,1.22
2013-7-21,91,77,73,83,75,72,99,94,65,29.92,29.92,3,0,8,0.01
2013-7-22,94,83,74,83,78,74,99,85,60,29.92,29.92,3,1,8,0.00
2013-7-23,93,83,75,81,76,73,99,82,54,29.92,29.92,6,1,13,0.00
2013-7-24,91,82,74,79,74,69,99,81,51,29.92,29.92,5,2,13,0.00
2013-7-25,89,83,54,80,76,54,99,81,65,29.92,29.92,5,2,13,0.00
2013-7-26,93,83,74,82,77,72,99,83,62,29.92,29.92,8,1,17,1.52
2013-7-27,93,79,76,81,78,74,99,95,64,29.92,29.92,4,0,9,0.13
2013-7-28,78,48,0,76,68,57,99,59,96,29.92,29.92,0,0,0,0.13
2013-7-29,95,25,0,81,62,57,97,27,51,29.92,29.92,4,0,7,0.13
2013-7-30,78,78,76,77,76,74,97,96,94,29.92,29.92,0,0,2,0.00
2013-7-31,78,78,78,77,77,77,96,96,96,29.92,29.92,0,0,0,0.00
2013-8-1,78,78,78,77,77,77,96,96,96,29.92,29.92,0,0,0,0.00
2013-8-2,78,78,78,77,77,77,96,96,96,29.92,29.92,0,0,0,0.00
2013-8-3,78,78,78,77,77,77,96,96,96,29.92,29.92,0,0,0,0.00
2013-8-4,78,78,78,77,77,77,96,96,96,29.92,29.92,0,0,0,0.00
2013-8-16,96,89,78,79,76,74,92,68,53,29.92,29.92,3,0,7,2.09
2013-8-17,81,79,74,80,78,72,97,96,83,29.92,29.92,2,0,6,0.63
2013-8-18,94,82,77,83,77,74,99,88,58,29.92,29.92,2,0,8,0.33
2013-8-19,93,80,74,83,76,72,99,90,62,29.92,29.92,4,0,12,0.87
2013-8-20,91,79,74,83,76,15,99,90,10,29.92,29.92,4,0,8,0.41
2013-8-21,79,76,54,77,74,54,99,94,58,29.92,29.92,1,0,4,0.41
2013-8-22,94,81,74,83,77,15,98,89,60,32.95,29.92,2,0,11,0.84
2013-8-23,93,81,75,84,76,72,99,88,55,29.92,29.92,3,0,8,0.02
2013-8-24,95,82,74,83,76,15,99,85,10,29.92,29.92,4,0,12,0.30
2013-8-25,91,80,76,81,77,18,99,92,11,29.92,29.92,2,0,8,0.35
2013-8-26,91,80,74,80,76,15,99,90,10,29.92,29.92,2,0,5,0.07
2013-8-27,88,77,72,79,74,70,99,92,65,29.92,29.92,2,0,9,0.65
2013-8-28,90,78,73,82,69,15,99,80,10,29.92,29.92,4,0,9,0.20
2013-8-29,91,81,74,81,60,15,99,61,10,29.92,29.92,3,0,7,0.20
2013-8-30,94,82,57,81,75,57,99,82,53,29.92,29.92,5,1,11,0.20
2013-8-31,93,80,73,81,73,15,99,82,10,29.92,29.92,4,1,10,0.00
2013-9-1,95,79,73,82,74,15,99,88,10,29.92,29.92,4,0,14,0.99
2013-9-2,91,79,74,85,77,73,99,93,74,29.92,29.92,3,0,9,0.19
2013-9-3,89,80,73,84,76,72,99,87,60,29.92,29.92,5,0,11,0.01
2013-9-4,92,79,76,82,76,72,99,93,63,29.92,29.92,3,0,6,0.02
2013-9-5,94,83,76,83,78,74,99,86,56,29.92,29.92,3,0,7,0.02
2013-9-6,94,83,75,84,77,15,98,84,10,29.92,29.92,4,0,14,0.00
2013-9-7,91,80,74,80,75,72,99,88,63,29.92,29.92,3,1,8,1.28
2013-9-8,80,75,74,75,74,73,97,95,83,29.92,29.92,1,0,3,0.17
2013-9-9,91,83,74,81,75,73,99,80,58,29.92,29.92,2,1,8,0.17
2013-9-10,92,85,74,79,75,15,99,73,57,29.92,29.92,3,1,11,0.17
2013-9-11,90,81,74,80,75,73,98,84,61,29.92,29.92,3,1,10,0.00
2013-9-12,91,80,75,82,76,74,99,88,64,29.92,29.92,2,1,10,0.15
2013-9-13,91,81,73,82,75,72,99,82,53,29.92,29.92,3,1,10,0.78
2013-9-14,94,84,74,81,76,72,99,79,51,29.92,29.92,2,0,4,0.78
2013-9-15,95,80,75,82,76,15,98,89,10,29.92,29.92,5,0,12,0.04
2013-9-16,86,76,74,83,76,15,99,97,86,29.92,29.92,3,0,10,1.18
2013-9-17,90,78,74,80,76,73,99,93,70,29.92,29.92,2,0,8,0.01
2013-9-18,90,78,74,82,77,73,99,94,70,29.92,29.92,2,0,6,0.53
2013-9-19,90,81,73,81,77,72,99,88,66,29.92,29.92,2,0,7,0.05
2013-9-20,90,82,72,77,73,69,99,76,56,29.92,29.92,2,1,10,0.01
2013-9-21,91,79,70,78,72,69,99,82,52,29.92,29.92,3,0,6,0.00
2013-9-22,92,81,72,80,75,70,99,83,51,29.92,29.92,4,1,10,0.00
2013-9-23,84,78,76,82,77,75,99,97,90,29.92,29.92,6,0,11,1.41
2013-9-24,84,78,73,84,78,18,99,99,97,29.92,29.92,1,0,4,0.98
2013-9-25,80,76,73,78,74,72,99,95,83,29.92,29.92,5,1,13,0.02
2013-9-26,90,81,74,85,77,70,99,87,54,29.92,29.92,8,2,18,0.21
2013-9-27,87,79,72,75,72,68,98,82,54,29.92,29.92,4,1,12,0.00
2013-9-28,91,79,72,76,72,71,98,83,57,29.92,29.92,3,1,12,0.00
2013-9-29,90,80,71,76,73,70,99,79,53,29.92,29.92,2,1,5,0.00
2013-10-8,83,82,82,71,71,71,69,69,67,29.92,29.92,4,3,6,0.00
2013-10-9,86,80,74,74,73,71,98,79,65,29.92,29.92,4,1,7,0.00
2013-10-10,88,78,68,74,70,68,99,78,54,29.92,29.92,2,0,4,0.00
2013-10-11,86,78,66,71,65,63,99,69,46,29.92,29.92,3,0,4,0.00
2013-10-12,83,73,66,71,68,66,99,86,63,29.92,29.92,3,1,5,0.00
2013-10-13,87,80,68,74,68,63,99,67,45,29.92,29.92,4,1,7,0.00
2013-10-14,85,80,68,68,66,64,99,65,51,29.92,29.92,2,0,4,0.00
2013-10-15,84,77,68,68,66,64,99,70,52,29.92,29.92,2,0,2,0.00
2013-10-16,83,75,69,71,69,66,99,85,64,29.92,29.92,1,0,2,0.00
2013-10-17,87,73,68,71,69,68,99,90,57,29.92,29.92,2,0,3,0.00
2013-10-18,92,84,70,80,73,69,99,73,50,29.92,29.92,2,1,3,0.00
2013-10-19,92,86,72,79,76,71,96,72,59,29.92,29.92,5,1,7,0.00
2013-10-20,91,87,73,80,75,72,97,69,58,29.92,29.92,4,1,8,0.00
2013-10-21,82,78,72,76,75,71,97,90,82,29.92,29.92,2,0,3,0.00
2013-10-22,83,80,74,75,75,74,99,84,78,29.92,29.92,2,1,4,0.00
2013-10-23,82,75,73,75,70,66,99,84,72,29.92,29.92,2,0,4,0.00
2013-10-24,74,69,66,67,62,58,80,78,76,29.92,29.92,4,1,6,0.01
2013-10-25,76,70,62,63,62,60,94,75,63,29.92,29.92,2,0,4,0.01
2013-10-26,77,68,60,66,63,60,99,87,67,29.92,29.92,3,0,4,0.01
2013-10-27,85,79,69,67,61,56,83,55,42,29.92,29.92,5,1,8,0.00
2013-10-28,78,71,60,64,63,59,99,75,62,29.92,29.92,0,0,0,0.00
2013-10-29,79,74,64,67,66,63,97,77,66,29.92,29.92,2,0,4,0.00
2013-10-30,80,74,66,67,66,65,99,76,61,29.92,29.92,2,0,5,0.00
2013-10-31,90,78,64,75,68,64,99,74,49,29.92,29.92,2,0,4,0.00
2013-11-1,90,84,68,80,71,65,99,67,49,29.92,29.92,6,1,11,0.00
2013-11-2,85,76,70,78,70,63,99,81,65,29.92,29.92,8,2,11,0.00
2013-11-3,75,73,62,64,54,50,96,52,47,29.92,29.92,5,2,11,0.00
2013-11-4,75,66,57,65,59,51,93,80,54,29.92,29.92,3,0,7,0.00
2013-11-5,76,72,67,72,68,64,98,88,71,29.92,29.92,3,1,6,0.00
2013-11-6,84,75,69,71,68,66,95,79,62,29.92,29.92,2,0,5,0.00
2013-11-7,77,71,67,68,67,66,99,89,74,29.92,29.92,1,0,2,0.00
2013-11-8,84,79,67,71,69,66,99,73,62,29.92,29.92,5,1,10,0.00
2013-11-9,76,74,72,72,70,69,93,88,78,29.92,29.92,3,0,7,0.00
2013-11-10,86,77,70,74,70,67,96,78,59,29.92,29.92,5,0,8,0.00
2013-11-11,88,75,67,71,66,15,99,80,10,29.92,29.92,3,0,4,0.00
2013-11-12,85,74,66,72,68,66,99,80,55,29.92,29.92,4,0,4,0.00
2013-11-13,75,66,64,68,58,51,95,76,64,29.92,29.92,6,2,15,0.00
2013-11-14,70,62,56,60,56,51,93,83,71,29.92,29.92,4,0,10,0.00
2013-11-15,83,76,63,70,67,60,94,75,62,29.92,29.92,6,1,12,0.00
2013-11-16,78,74,69,75,70,66,98,87,74,29.92,29.92,4,0,9,0.21
2013-11-17,86,77,68,73,70,67,99,79,59,29.92,29.92,3,0,4,0.00
2013-11-18,80,75,66,72,70,66,99,85,75,29.92,29.92,3,1,4,0.00
2013-11-19,76,73,69,74,72,68,99,97,87,29.92,29.92,2,0,2,0.19
2013-11-20,79,74,68,74,72,68,99,92,84,29.92,29.92,2,0,4,0.20
2013-11-21,76,73,72,72,71,71,97,95,86,29.92,29.92,2,0,4,0.20
2013-11-22,77,74,71,72,69,67,98,86,73,29.92,29.92,2,0,4,0.20
2013-11-23,75,66,65,69,65,65,99,97,81,29.92,29.92,1,0,3,0.20
2013-11-25,72,70,68,67,65,64,95,84,77,29.92,29.92,4,1,8,0.20
2013-11-26,80,74,69,73,70,66,98,90,79,29.92,29.92,2,0,5,0.02
2013-11-27,78,67,64,73,61,55,98,82,73,29.92,29.92,6,3,9,0.25
2013-11-28,70,63,56,55,54,53,94,74,55,29.92,29.92,3,1,6,0.26
2013-11-29,77,68,53,62,58,53,98,72,56,29.92,29.92,7,2,12,0.26
2013-11-30,79,71,59,69,66,58,99,85,70,29.92,29.92,6,1,14,0.00
2013-12-1,78,68,60,71,65,15,99,91,10,29.92,29.92,6,1,8,0.00
2013-12-2,73,66,61,67,63,60,99,90,69,29.92,29.92,4,1,8,0.00
2013-12-3,73,67,62,65,63,60,97,89,77,29.92,29.92,0,0,0,0.00
2013-12-4,83,69,60,75,66,60,99,91,63,29.92,29.92,2,0,4,0.00
2013-12-5,87,71,61,74,65,60,99,84,54,29.92,29.92,2,0,4,0.00
2013-12-6,89,76,64,76,69,63,99,81,53,29.92,29.92,4,0,6,0.00
2013-12-7,78,71,57,69,66,57,99,86,73,29.92,29.92,2,0,2,0.00
2013-12-8,88,79,64,72,67,63,99,70,51,29.92,29.92,3,1,6,0.00
2013-12-9,87,74,68,73,66,63,99,79,51,29.92,29.92,3,0,8,0.02
2013-12-10,86,74,61,73,66,60,99,78,53,29.92,29.92,4,0,4,0.02
2013-12-11,86,75,67,71,68,66,99,82,60,29.92,29.92,2,0,4,0.02
2013-12-12,72,67,65,67,66,65,99,98,85,29.92,29.92,1,0,2,0.02
2013-12-13,73,61,51,62,56,46,99,84,63,29.92,29.92,4,0,8,0.00
2013-12-14,88,80,65,73,70,62,99,73,57,29.92,29.92,4,1,6,0.01
2013-12-15,79,75,67,76,73,61,99,92,78,29.92,29.92,5,1,10,0.13
2013-12-16,73,67,53,69,56,52,96,70,59,29.92,29.92,5,1,8,0.13
2013-12-17,78,58,48,60,53,47,99,85,53,29.92,29.92,4,0,6,0.00
2013-12-18,75,59,50,58,48,41,99,70,31,29.92,29.92,3,0,5,0.00
2013-12-19,79,65,49,60,55,46,98,73,50,29.92,29.92,2,0,3,0.00
2013-12-20,85,74,59,71,67,57,99,80,61,29.92,29.92,4,1,6,0.00
2013-12-21,88,78,67,76,71,66,99,80,58,29.92,29.92,3,1,5,0.00
2013-12-22,88,77,57,76,69,11,99,78,10,29.92,29.92,7,1,10,0.00
2013-12-23,78,72,68,71,69,67,99,90,79,29.92,29.92,1,0,2,0.00
2013-12-24,73,66,56,69,64,47,99,93,74,29.92,29.92,4,1,8,0.00
2013-12-25,78,69,56,66,61,47,85,75,63,29.92,29.92,4,1,8,0.00
2013-12-26,82,70,61,70,64,58,93,83,65,29.92,29.92,4,0,5,0.00
2013-12-27,80,68,64,70,65,63,99,91,73,29.92,29.92,3,0,4,0.00
2013-12-28,73,68,67,72,67,66,99,98,83,29.92,29.92,2,0,4,0.00
2013-12-29,81,77,70,78,73,67,99,90,77,29.92,29.92,7,2,12,0.08
2013-12-30,74,67,64,71,64,62,95,90,74,29.92,29.92,4,1,7,0.08
2013-12-31,66,66,66,64,64,64,91,91,91,29.92,29.92,0,0,0,0.00
2014-1-1,79,68,61,72,65,57,97,89,80,29.92,29.92,3,0,6,0.54
2014-1-2,77,72,65,72,69,65,99,92,84,29.92,29.92,4,1,11,0.65